Wind_Speed
34 34 36 36 36 37 36 35 34 32 32 31 31 31 30 30 29 28 26 25 23 22 21 20 20 19 19 17 17 16 16 16 15 15 14 14 13 13 13 13 13 13 12 12 12 11 11 11 11
31 32 34 36 37 38 37 34 33 33 32 32 32 32 32 32 30 28 27 26 24 23 22 22 21 20 20 20 19 18 18 18 17 17 16 16 15 15 14 14 14 14 14 13 13 13 13 13 13
30 31 33 34 36 37 36 34 33 32 32 33 32 33 33 32 30 29 27 27 26 24 23 23 22 22 22 22 21 20 20 20 20 19 18 18 17 17 17 16 16 16 15 15 15 15 15 14 14
28 29 31 32 32 32 34 33 33 32 31 32 32 33 33 32 31 30 29 28 27 26 25 24 24 23 22 22 22 22 21 21 21 21 20 20 20 20 19 19 18 18 18 17 17 17 16 16 16
25 27 30 31 29 29 31 33 32 32 31 31 31 32 33 32 31 31 30 29 29 27 27 26 25 24 24 23 23 23 22 22 22 22 21 21 21 21 21 21 20 20 20 20 19 19 18 18 18
24 25 27 29 28 28 29 31 31 30 31 31 32 31 32 32 31 31 30 29 29 28 28 28 27 26 25 24 24 23 23 23 23 23 22 22 22 22 22 22 22 22 22 22 22 21 21 20 20
23 24 24 25 26 27 27 28 30 29 30 31 31 31 30 31 31 31 30 29 29 30 29 29 28 27 26 25 25 25 25 25 24 24 24 24 24 24 24 24 24 24 24 24 24 23 23 22 22
20 22 22 24 24 25 26 26 28 28 29 30 31 30 30 31 31 31 31 30 29 30 30 29 29 28 27 27 27 27 26 26 26 26 26 25 25 25 25 25 25 25 26 26 26 25 25 24 24
18 20 21 22 22 23 25 25 26 28 28 29 30 29 30 30 31 31 31 31 30 31 31 30 30 30 30 29 29 29 29 29 29 29 28 28 28 28 27 27 27 27 27 27 27 27 27 27 26
16 19 18 18 20 22 24 24 25 26 27 28 29 29 29 30 30 31 31 31 31 30 31 31 30 30 30 30 31 31 31 31 31 31 30 30 29 29 29 28 28 28 29 29 29 29 29 29 29
13 16 16 16 17 20 21 22 23 24 26 27 27 28 28 30 30 30 31 31 32 32 31 31 31 31 31 30 32 32 32 32 32 32 32 32 31 31 30 30 30 30 30 31 31 31 32 32 31
12 14 14 14 15 17 18 19 21 23 24 26 25 26 28 30 30 30 30 30 31 32 32 31 31 31 32 31 32 32 33 33 33 33 33 33 33 33 32 32 32 32 32 32 32 33 33 34 33
10 12 12 13 14 15 17 18 19 20 23 25 24 24 28 30 29 29 29 29 31 32 32 32 32 32 32 32 32 33 33 34 34 34 34 34 34 34 34 34 33 33 33 32 33 33 33 34 35
9 9 11 12 12 14 16 17 19 20 22 23 23 23 26 28 29 28 29 29 30 32 33 33 33 33 33 33 33 33 33 34 34 34 35 35 35 35 35 35 35 34 34 33 33 34 34 34 35
7 8 9 11 12 13 15 17 18 20 22 24 23 22 23 24 26 28 28 29 30 31 32 32 33 32 32 33 34 34 33 34 35 35 35 35 35 35 35 35 35 35 35 34 34 34 35 35 35
6 7 8 9 11 13 14 16 17 19 21 23 24 23 23 24 26 28 28 29 30 31 31 31 32 32 31 32 34 35 35 34 35 36 36 35 35 34 34 34 35 35 36 36 36 36 36 37 37
7 7 8 9 10 12 13 15 17 19 21 22 23 24 24 23 25 27 29 29 30 31 31 31 31 31 32 32 32 34 35 35 35 35 35 35 36 36 35 35 35 36 36 37 37 37 37 37 37
6 7 8 9 10 11 13 14 16 18 20 22 23 23 24 25 25 26 27 28 29 30 31 31 32 32 33 33 33 33 34 35 35 35 35 35 36 36 37 37 37 37 37 37 37 37 37 38 38
6 7 8 9 10 11 12 14 16 17 18 20 20 21 22 23 24 25 26 27 29 29 31 32 33 33 34 34 34 34 34 34 34 36 36 36 36 36 36 36 37 37 37 37 37 37 37 37 38
8 8 9 10 11 12 12 13 15 16 17 19 20 20 21 22 24 24 25 26 28 29 30 32 33 34 34 34 34 34 34 34 34 35 35 36 36 37 37 37 37 37 37 37 37 37 37 38 38
9 10 10 10 10 11 12 13 14 15 17 19 20 20 21 22 23 24 25 26 27 29 30 31 32 33 34 35 35 35 35 36 36 36 36 37 38 37 37 37 37 36 36 36 37 38 39 39 39
10 11 11 12 12 12 13 13 13 15 17 19 20 21 21 22 23 24 25 26 27 28 29 30 31 31 32 33 33 34 34 36 37 37 38 38 39 39 39 38 38 37 37 37 37 38 38 38 38
12 12 12 12 12 13 13 14 12 13 15 17 19 20 22 23 23 24 25 26 27 28 28 29 29 29 30 31 32 32 33 33 34 35 36 37 38 38 38 39 39 38 38 38 38 38 38 38 38
13 13 13 13 13 13 13 14 13 13 13 15 17 19 20 22 23 24 25 25 26 27 27 27 28 29 29 30 31 32 31 32 33 33 33 34 35 36 37 38 38 38 38 38 39 39 39 39 39
15 15 15 15 14 13 13 14 14 13 13 14 16 17 18 20 22 23 24 25 26 27 28 28 29 30 30 31 31 32 33 33 33 33 33 33 34 35 36 36 37 38 38 38 38 39 39 39 39
16 16 16 17 16 15 15 15 14 15 15 15 15 17 19 20 21 22 23 25 26 27 28 29 30 31 31 32 33 33 34 34 33 33 33 33 33 33 34 35 36 37 38 38 38 39 39 39 40
18 17 18 18 18 17 16 16 16 16 16 17 17 18 19 21 22 24 25 26 27 28 29 30 30 32 32 33 33 34 34 33 33 33 33 33 33 34 34 35 35 36 37 38 39 39 39 39 40
20 20 20 20 20 19 18 17 17 18 18 19 20 21 21 22 24 25 26 27 28 29 30 31 32 32 33 34 34 35 35 35 35 35 35 35 35 35 35 36 36 36 36 37 38 39 39 39 39
21 21 21 21 21 21 21 19 19 20 20 22 23 23 24 25 26 27 28 29 30 30 31 32 33 34 34 34 35 35 36 37 37 37 36 36 36 36 37 37 37 37 37 37 38 39 40 40 40
22 22 22 22 22 22 22 20 20 21 22 23 24 24 25 26 27 28 29 30 31 31 32 33 34 35 35 35 35 36 36 37 38 38 38 38 38 38 38 38 38 38 38 38 38 39 39 40 40
Wind_Direction
251 248 246 245 243 242 242 242 241 240 240 239 237 234 232 231 229 230 229 228 229 231 232 233 233 233 235 236 238 241 242 244 245 245 245 245 246 247 248 248 249 249 250 251 254 256 256 257 260
249 246 244 243 243 242 243 241 239 239 238 238 236 233 231 232 230 229 229 229 230 231 232 234 235 235 236 237 239 242 244 245 246 246 247 247 248 249 250 251 252 250 251 253 255 257 260 260 262
247 244 243 242 242 242 242 239 237 238 236 236 235 233 232 231 229 229 229 231 232 232 232 234 235 236 237 239 240 243 245 246 247 247 248 249 249 251 252 253 253 253 254 257 257 258 260 262 263
247 244 242 243 241 241 239 237 236 236 235 235 235 234 233 231 229 228 229 230 232 232 231 233 235 236 237 238 241 243 245 246 246 248 249 249 250 252 253 254 254 254 256 258 259 258 260 261 263
246 244 241 240 239 238 237 235 236 235 234 233 233 234 233 230 228 227 228 229 230 232 232 232 234 236 238 240 241 242 244 246 247 247 249 250 252 253 254 255 256 256 257 258 259 259 260 261 263
245 241 239 238 237 236 234 234 234 234 233 230 231 232 232 230 229 228 228 230 231 231 232 233 234 235 238 240 240 242 243 245 246 247 249 251 253 254 254 256 257 258 259 259 260 260 260 261 262
242 238 239 239 238 235 232 232 232 231 230 229 230 231 231 231 229 229 229 230 231 231 231 232 234 235 238 240 241 242 244 245 247 248 250 252 254 255 255 256 257 258 259 259 260 261 261 261 262
239 237 236 236 238 236 231 230 229 228 227 228 229 230 230 230 231 232 232 232 232 231 231 231 233 235 237 240 242 244 245 247 249 251 252 254 254 255 256 257 258 258 259 259 260 261 261 262 263
239 235 236 236 237 232 229 227 228 228 227 228 229 230 230 231 231 231 231 231 231 232 232 232 234 236 239 242 244 245 246 247 250 252 254 254 256 256 256 257 258 259 259 259 260 260 261 262 263
238 232 234 236 234 229 228 227 227 227 226 227 228 230 229 232 233 232 231 230 231 233 234 235 236 238 241 244 245 246 247 247 249 252 254 254 256 257 257 258 258 259 259 260 260 260 261 261 262
237 232 234 238 233 230 229 227 227 229 226 226 228 228 229 233 235 233 232 231 232 233 235 236 237 241 244 246 246 246 247 248 249 251 253 254 256 257 258 259 260 260 260 261 261 261 261 261 261
239 231 237 240 232 228 227 229 229 229 225 226 228 228 230 232 235 234 234 233 233 234 237 238 239 243 245 246 245 247 247 249 250 251 253 254 255 256 257 259 261 261 261 261 261 261 261 261 261
241 238 241 240 232 231 229 229 229 227 223 225 231 232 232 234 235 238 237 235 235 236 238 240 241 244 246 246 247 247 248 249 251 252 254 255 255 256 257 259 260 261 262 263 262 262 262 261 261
243 244 246 238 234 233 231 229 227 228 225 227 230 232 235 236 236 236 236 238 238 239 241 242 242 246 246 246 247 248 249 250 251 253 254 255 257 258 258 259 260 261 262 263 264 263 263 262 262
249 252 247 244 240 237 235 233 228 226 226 228 231 234 235 234 234 234 235 237 239 240 240 242 243 245 245 246 248 250 251 252 253 254 254 255 256 258 259 259 260 261 262 262 263 264 263 262 262
255 257 250 247 245 240 237 235 234 233 232 233 234 236 240 238 236 234 234 236 238 240 241 243 245 248 250 247 248 251 251 253 253 254 254 254 256 258 259 260 260 260 262 262 263 263 263 262 262
259 259 251 248 248 243 237 238 239 237 236 237 236 237 241 243 240 238 237 238 239 241 243 244 247 250 252 251 251 251 252 252 254 254 255 255 256 256 259 260 260 261 262 263 264 263 263 263 263
279 268 259 252 249 245 243 241 240 241 241 241 241 242 244 245 245 244 242 240 240 242 244 246 249 251 254 254 253 252 253 253 254 255 256 257 257 257 257 258 260 261 262 263 264 263 262 263 263
293 282 273 264 258 252 250 247 245 243 244 244 245 245 245 244 246 245 243 242 243 245 247 249 252 254 256 256 255 255 255 256 256 257 257 258 258 259 259 260 261 261 262 264 263 263 263 263 263
293 286 279 269 262 259 256 251 248 244 244 244 243 245 245 243 243 245 244 245 246 248 250 252 255 256 257 257 257 257 257 258 258 259 259 259 260 261 261 261 262 261 263 265 265 264 264 266 265
294 288 282 276 265 260 257 254 249 247 244 242 241 243 245 244 244 246 247 247 249 251 253 255 257 258 258 259 260 259 259 261 261 262 262 262 263 263 262 262 262 263 264 265 265 265 266 267 266
297 293 285 279 273 267 263 260 255 253 248 244 244 244 244 246 247 247 247 248 250 252 254 256 257 259 259 259 261 261 261 262 262 263 263 264 264 264 263 263 264 265 266 266 266 265 265 265 265
303 297 289 284 279 274 269 268 263 258 251 246 245 245 245 245 246 246 247 248 249 252 254 256 258 259 260 260 261 263 263 263 264 265 265 265 264 264 265 265 264 265 266 266 267 266 264 265 264
303 299 293 288 285 280 275 272 269 267 260 251 247 246 246 246 248 248 248 248 249 251 254 257 258 258 259 261 262 263 263 264 265 266 267 266 265 265 265 266 266 266 267 267 268 267 265 264 264
300 297 292 290 288 286 279 274 271 270 264 256 251 249 248 248 249 249 250 251 251 252 255 258 259 259 260 261 262 262 262 264 266 267 267 268 268 267 267 267 267 267 267 267 268 267 266 265 265
296 293 291 289 288 285 281 280 276 273 269 264 259 254 252 251 252 253 252 252 253 254 257 259 261 261 261 261 261 262 262 263 264 266 267 268 268 268 268 268 268 268 268 268 268 267 266 266 265
292 289 287 286 285 281 277 277 275 273 269 264 261 259 257 256 255 255 254 255 257 257 258 260 261 262 263 262 261 262 262 263 264 266 267 268 268 268 269 269 269 269 269 269 268 267 266 265 265
289 287 286 285 283 281 277 274 274 271 268 266 264 263 262 260 259 259 258 258 259 260 260 260 261 262 263 264 263 262 262 264 265 266 267 268 269 269 269 270 270 269 269 268 267 267 266 265 264
289 286 284 283 281 281 280 277 275 274 271 268 266 265 264 264 263 262 261 261 261 261 262 263 263 263 264 265 265 264 265 265 266 267 267 268 269 269 270 270 270 270 269 268 267 267 266 265 264
285 284 282 281 279 279 280 281 277 274 272 271 269 268 267 266 264 264 264 263 263 263 264 265 265 265 265 265 266 266 266 267 268 268 268 269 269 270 270 270 270 269 268 267 267 266 266 265 265
Height
5784 5786 5788 5790 5793 5795 5798 5804 5809 5814 5817 5820 5822 5825 5828 5831 5835 5841 5843 5845 5848 5851 5853 5855 5857 5860 5861 5863 5865 5866 5867 5869 5870 5871 5871 5872 5873 5874 5874 5875 5876 5876 5876 5877 5877 5877 5877 5877 5878
5775 5776 5779 5780 5783 5786 5791 5797 5802 5807 5811 5813 5815 5818 5821 5825 5829 5833 5837 5840 5844 5847 5849 5852 5854 5856 5858 5860 5861 5863 5865 5866 5867 5868 5869 5870 5871 5871 5872 5873 5873 5874 5874 5875 5875 5875 5875 5876 5876
5766 5767 5770 5772 5774 5780 5785 5791 5795 5799 5803 5805 5808 5811 5815 5819 5823 5828 5832 5835 5839 5842 5845 5847 5850 5852 5854 5856 5858 5859 5861 5863 5864 5865 5866 5867 5868 5869 5869 5870 5871 5871 5872 5872 5872 5873 5873 5873 5873
5758 5760 5762 5765 5768 5774 5779 5784 5788 5792 5795 5798 5801 5805 5809 5814 5818 5823 5826 5830 5833 5837 5840 5843 5846 5848 5850 5852 5854 5855 5857 5859 5860 5862 5863 5864 5865 5865 5866 5867 5868 5868 5869 5869 5870 5870 5870 5870 5870
5751 5753 5756 5759 5764 5768 5772 5777 5781 5785 5788 5792 5796 5799 5803 5809 5812 5817 5821 5824 5828 5832 5835 5838 5841 5843 5845 5847 5849 5851 5853 5855 5856 5858 5859 5860 5861 5862 5863 5863 5864 5865 5866 5866 5866 5866 5867 5867 5867
5746 5747 5750 5754 5759 5762 5766 5770 5774 5779 5782 5786 5790 5794 5798 5803 5806 5811 5815 5819 5823 5827 5830 5833 5836 5838 5841 5843 5845 5847 5849 5851 5852 5854 5855 5856 5857 5858 5859 5859 5860 5861 5862 5862 5862 5863 5863 5864 5864
5742 5744 5747 5751 5754 5757 5761 5764 5769 5773 5776 5781 5785 5789 5793 5797 5801 5806 5810 5813 5817 5821 5824 5827 5831 5834 5836 5838 5840 5842 5844 5846 5848 5849 5850 5852 5853 5853 5854 5855 5856 5857 5857 5858 5858 5859 5859 5860 5860
5739 5742 5743 5746 5749 5753 5757 5760 5764 5768 5772 5776 5780 5784 5788 5792 5796 5800 5804 5808 5812 5815 5819 5822 5825 5828 5830 5832 5835 5837 5839 5841 5843 5844 5846 5847 5848 5849 5850 5850 5851 5852 5852 5853 5854 5854 5855 5855 5855
5736 5740 5741 5743 5746 5750 5753 5756 5759 5763 5767 5771 5775 5780 5784 5787 5791 5795 5798 5802 5806 5810 5813 5816 5819 5822 5825 5827 5829 5831 5833 5835 5837 5839 5840 5841 5842 5843 5844 5845 5846 5846 5847 5848 5848 5849 5849 5850 5850
5735 5737 5740 5742 5744 5747 5749 5752 5756 5760 5764 5768 5771 5775 5779 5782 5786 5790 5793 5797 5801 5804 5807 5810 5813 5816 5819 5821 5823 5825 5827 5829 5831 5833 5834 5835 5837 5838 5838 5839 5840 5841 5841 5842 5842 5843 5844 5844 5845
5734 5737 5739 5741 5742 5745 5747 5750 5753 5757 5761 5764 5768 5771 5774 5778 5781 5785 5788 5791 5795 5798 5801 5804 5807 5810 5812 5814 5816 5818 5821 5823 5825 5826 5828 5829 5830 5831 5832 5833 5834 5834 5835 5835 5836 5836 5837 5838 5838
5734 5736 5738 5739 5741 5743 5745 5748 5751 5754 5757 5760 5763 5767 5771 5773 5776 5780 5783 5786 5790 5793 5796 5798 5801 5804 5806 5808 5809 5812 5814 5816 5818 5819 5821 5822 5823 5824 5825 5826 5827 5827 5828 5828 5829 5829 5830 5831 5831
5733 5735 5736 5738 5740 5742 5744 5746 5749 5751 5754 5757 5760 5763 5766 5769 5772 5775 5778 5781 5784 5787 5790 5792 5795 5798 5800 5801 5803 5805 5807 5809 5811 5812 5814 5815 5816 5817 5818 5819 5820 5820 5820 5821 5821 5822 5822 5823 5824
5734 5734 5736 5737 5739 5740 5742 5744 5746 5748 5751 5754 5756 5759 5761 5764 5767 5770 5773 5776 5779 5782 5785 5787 5789 5791 5792 5794 5796 5798 5800 5801 5803 5805 5806 5807 5809 5810 5811 5811 5812 5813 5813 5813 5814 5814 5815 5815 5816
5733 5735 5736 5736 5738 5739 5741 5743 5744 5746 5748 5751 5753 5755 5757 5759 5762 5765 5768 5771 5774 5777 5779 5781 5783 5785 5786 5788 5790 5791 5792 5794 5796 5797 5798 5799 5801 5802 5803 5803 5804 5805 5805 5806 5806 5807 5807 5808 5809
5733 5734 5735 5735 5736 5737 5741 5742 5742 5743 5745 5747 5749 5752 5754 5756 5758 5760 5763 5766 5769 5772 5774 5775 5777 5779 5780 5780 5782 5784 5785 5786 5788 5789 5790 5791 5792 5793 5794 5795 5796 5797 5797 5798 5798 5799 5799 5800 5801
5733 5733 5733 5734 5734 5735 5737 5739 5740 5741 5743 5744 5746 5748 5750 5752 5754 5756 5759 5761 5764 5766 5768 5769 5771 5773 5774 5774 5775 5776 5777 5779 5780 5781 5782 5783 5784 5785 5786 5787 5788 5788 5789 5790 5790 5791 5791 5792 5792
5732 5732 5731 5732 5733 5733 5734 5736 5737 5738 5740 5741 5743 5745 5746 5748 5750 5751 5754 5756 5758 5760 5762 5764 5765 5766 5767 5768 5769 5769 5770 5771 5772 5773 5774 5775 5776 5777 5778 5779 5779 5780 5781 5781 5781 5782 5782 5783 5784
5731 5731 5730 5730 5730 5731 5732 5732 5733 5734 5736 5738 5739 5741 5742 5743 5745 5746 5748 5751 5753 5755 5756 5758 5759 5759 5760 5761 5761 5762 5763 5764 5765 5765 5766 5767 5768 5768 5769 5770 5771 5771 5772 5772 5772 5773 5774 5774 5775
5730 5729 5729 5729 5728 5729 5729 5729 5730 5730 5732 5734 5735 5737 5738 5739 5741 5742 5744 5746 5747 5749 5750 5751 5752 5752 5753 5753 5754 5755 5756 5756 5757 5757 5758 5759 5759 5760 5760 5761 5762 5762 5763 5764 5764 5765 5765 5766 5766
5729 5728 5727 5727 5726 5726 5726 5727 5727 5727 5727 5729 5731 5732 5733 5734 5736 5738 5739 5740 5742 5743 5744 5745 5745 5745 5746 5746 5746 5746 5748 5748 5749 5749 5750 5750 5751 5751 5751 5752 5753 5754 5754 5755 5755 5756 5756 5757 5757
5727 5726 5725 5724 5724 5724 5724 5723 5723 5722 5723 5725 5726 5727 5728 5729 5731 5732 5734 5735 5736 5737 5738 5738 5738 5739 5739 5738 5738 5739 5740 5741 5741 5741 5742 5742 5742 5742 5743 5743 5744 5745 5745 5746 5746 5747 5747 5748 5748
5725 5724 5723 5722 5721 5721 5720 5720 5721 5719 5719 5720 5721 5722 5723 5724 5725 5727 5728 5729 5729 5730 5731 5731 5731 5732 5732 5731 5732 5732 5732 5733 5733 5733 5733 5733 5733 5734 5734 5734 5735 5736 5736 5737 5737 5737 5738 5738 5739
5722 5721 5720 5719 5719 5718 5717 5716 5717 5716 5716 5716 5716 5717 5718 5719 5720 5721 5721 5722 5723 5723 5724 5724 5724 5725 5725 5725 5725 5725 5725 5725 5725 5725 5725 5725 5725 5725 5725 5726 5726 5727 5727 5727 5728 5728 5728 5729 5730
5719 5718 5717 5715 5715 5715 5713 5712 5713 5712 5711 5711 5711 5712 5712 5713 5714 5714 5715 5716 5716 5717 5717 5717 5717 5717 5717 5717 5717 5717 5717 5717 5717 5717 5717 5717 5717 5717 5717 5717 5717 5717 5718 5718 5718 5718 5719 5719 5720
5715 5714 5713 5711 5710 5710 5709 5708 5709 5708 5707 5707 5707 5707 5707 5707 5708 5708 5709 5709 5709 5710 5710 5710 5710 5710 5709 5709 5709 5709 5709 5709 5709 5709 5709 5708 5708 5708 5708 5708 5708 5708 5708 5708 5708 5708 5709 5710 5711
5710 5709 5708 5706 5705 5704 5704 5704 5704 5702 5702 5702 5701 5701 5701 5701 5701 5702 5702 5702 5702 5702 5702 5702 5702 5701 5701 5701 5701 5701 5701 5701 5701 5701 5700 5700 5700 5700 5700 5700 5700 5699 5699 5699 5699 5699 5700 5700 5701
5705 5703 5702 5701 5699 5698 5698 5698 5699 5697 5696 5696 5695 5695 5695 5695 5694 5694 5694 5694 5694 5694 5694 5693 5693 5693 5693 5692 5692 5692 5692 5692 5692 5692 5692 5691 5691 5691 5691 5691 5690 5690 5690 5689 5689 5690 5690 5691 5691
5700 5698 5696 5694 5694 5693 5692 5695 5693 5691 5690 5689 5688 5688 5688 5687 5687 5687 5687 5686 5686 5686 5685 5685 5684 5684 5683 5683 5682 5682 5682 5682 5682 5682 5682 5682 5682 5681 5681 5681 5681 5681 5680 5680 5680 5680 5681 5681 5682
5692 5691 5690 5689 5688 5686 5685 5689 5685 5684 5682 5682 5681 5681 5680 5680 5679 5679 5678 5678 5678 5677 5677 5676 5675 5674 5674 5673 5673 5673 5673 5673 5672 5672 5672 5672 5672 5672 5671 5671 5671 5671 5671 5670 5671 5671 5671 5671 5671